ENT4065 EPWR-HEMA

Flight info

Callsign ENT4065
Flight time 4h 10m
Altitude 37000
Route PEKOT L616 DESEN DCT VALPI DCT XOMBA DCT KEROP DCT NISVA Y505 NIKTI UN127 LMO UL618 MES UN139 KPC UL54 PAXIS L607 NABSI P557 LOTOB DCT KUNKI P751 LXR M999 ELELI V730 ALKUN ALKUN1C
Aircraft B738/M-SDE2E3FGHIRWXY/LB1

Departure

Time 2026-04-28 14:12
Airport Copernicus Wrocław Airport (EPWR)

Arrival

Time 2026-04-28 18:23
Airport Marsa Alam International Airport (HEMA)
Time Latitude Longitude Altitude Speed Heading
2026-04-28 13:43 51.10780 16.88297 401 ft 0 kts 26°
2026-04-28 13:59 51.10779 16.88297 401 ft 1 kts 26°
2026-04-28 14:00 51.10775 16.88293 400 ft 3 kts 26°
2026-04-28 14:00 51.10751 16.88275 399 ft 4 kts 26°
2026-04-28 14:00 51.10742 16.88268 401 ft 4 kts 24°
2026-04-28 14:00 51.10719 16.88262 400 ft 4 kts 339°
2026-04-28 14:01 51.10699 16.88287 398 ft 3 kts 299°
2026-04-28 14:01 51.10697 16.88293 397 ft 0 kts 296°
2026-04-28 14:06 51.10698 16.88288 398 ft 2 kts 296°
2026-04-28 14:07 51.10712 16.88243 397 ft 7 kts 296°
2026-04-28 14:07 51.10743 16.88143 401 ft 13 kts 296°
2026-04-28 14:07 51.10789 16.87992 400 ft 17 kts 296°
2026-04-28 14:07 51.10848 16.87800 401 ft 21 kts 296°
2026-04-28 14:08 51.10909 16.87600 402 ft 19 kts 296°
2026-04-28 14:08 51.10948 16.87428 402 ft 10 kts 257°
2026-04-28 14:08 51.10931 16.87400 400 ft 2 kts 198°
2026-04-28 14:08 51.10881 16.87369 402 ft 14 kts 208°
2026-04-28 14:09 51.10775 16.87286 402 ft 18 kts 206°
2026-04-28 14:09 51.10703 16.87200 403 ft 6 kts 259°
2026-04-28 14:09 51.10708 16.87149 403 ft 5 kts 286°
2026-04-28 14:09 51.10728 16.87082 402 ft 9 kts 296°
2026-04-28 14:10 51.10766 16.86959 401 ft 15 kts 296°
2026-04-28 14:10 51.10819 16.86788 401 ft 19 kts 294°
2026-04-28 14:10 51.10830 16.86634 401 ft 10 kts 285°
2026-04-28 14:10 51.10843 16.86602 399 ft 0 kts 345°
2026-04-28 14:11 51.10844 16.86604 399 ft 1 kts 14°
2026-04-28 14:11 51.10856 16.86668 400 ft 10 kts 103°
2026-04-28 14:11 51.10839 16.86719 266 ft 4 kts 117°
2026-04-28 14:11 51.10837 16.86725 226 ft 0 kts 117°
2026-04-28 14:12 51.10823 16.86769 401 ft 23 kts 116°
2026-04-28 14:12 51.10638 16.87371 402 ft 97 kts 116°
2026-04-28 14:12 51.10249 16.88647 419 ft 155 kts 114°
2026-04-28 14:12 51.09752 16.90228 1078 ft 162 kts 111°
2026-04-28 14:13 51.09290 16.91863 2021 ft 165 kts 113°
2026-04-28 14:13 51.08778 16.93580 2682 ft 183 kts 112°
2026-04-28 14:13 51.08176 16.95541 3068 ft 206 kts 115°
2026-04-28 14:13 51.07218 16.97320 3495 ft 228 kts 146°
2026-04-28 14:14 51.05863 16.98340 3946 ft 240 kts 155°
2026-04-28 14:14 51.04304 16.99382 4605 ft 244 kts 154°
2026-04-28 14:14 51.02752 17.00441 5421 ft 245 kts 155°
2026-04-28 14:14 51.01107 17.01567 5759 ft 270 kts 155°
2026-04-28 14:15 50.99346 17.02770 6493 ft 280 kts 156°
2026-04-28 14:15 50.97547 17.03999 7328 ft 284 kts 156°
2026-04-28 14:15 50.95723 17.05246 8130 ft 288 kts 156°
2026-04-28 14:15 50.93863 17.06517 8922 ft 294 kts 156°
2026-04-28 14:16 50.91961 17.07817 9678 ft 301 kts 157°
2026-04-28 14:16 50.90023 17.09141 10428 ft 306 kts 157°
2026-04-28 14:16 50.88017 17.10516 10802 ft 326 kts 157°
2026-04-28 14:16 50.85857 17.11993 10994 ft 350 kts 157°
2026-04-28 14:17 50.83582 17.13545 11225 ft 370 kts 157°
2026-04-28 14:17 50.81183 17.15183 11770 ft 380 kts 157°
2026-04-28 14:17 50.78743 17.16846 12494 ft 384 kts 157°
2026-04-28 14:17 50.76281 17.18522 13249 ft 387 kts 157°
2026-04-28 14:18 50.73795 17.20215 13958 ft 392 kts 157°
2026-04-28 14:18 50.71275 17.21925 14580 ft 397 kts 157°
2026-04-28 14:18 50.68728 17.23654 15230 ft 400 kts 157°
2026-04-28 14:18 50.66159 17.25396 15877 ft 404 kts 158°
2026-04-28 14:19 50.63566 17.27153 16516 ft 408 kts 158°
2026-04-28 14:19 50.60945 17.28926 17130 ft 412 kts 158°
2026-04-28 14:19 50.58298 17.30714 17728 ft 416 kts 158°
2026-04-28 14:19 50.55624 17.32518 18329 ft 420 kts 158°
2026-04-28 14:20 50.52926 17.34336 18884 ft 424 kts 158°
2026-04-28 14:20 50.50205 17.36168 19411 ft 427 kts 158°
2026-04-28 14:20 50.47463 17.38012 19930 ft 430 kts 159°
2026-04-28 14:20 50.44699 17.39867 20454 ft 434 kts 159°
2026-04-28 14:21 50.41911 17.41737 20957 ft 437 kts 159°
2026-04-28 14:21 50.39104 17.43617 21456 ft 440 kts 159°
2026-04-28 14:21 50.36276 17.45509 21951 ft 444 kts 159°
2026-04-28 14:21 50.33427 17.47413 22428 ft 447 kts 159°
2026-04-28 14:22 50.30554 17.49330 22899 ft 450 kts 159°
2026-04-28 14:22 50.27661 17.51239 23339 ft 453 kts 161°
2026-04-28 14:22 50.24652 17.52720 23764 ft 454 kts 169°
2026-04-28 14:22 50.21567 17.53824 24184 ft 455 kts 171°
2026-04-28 14:23 50.18468 17.54878 24564 ft 457 kts 172°
2026-04-28 14:23 50.15345 17.55930 24948 ft 460 kts 172°
2026-04-28 14:23 50.12214 17.56996 25315 ft 462 kts 171°
2026-04-28 14:23 50.09066 17.58083 25677 ft 464 kts 171°
2026-04-28 14:24 50.05904 17.59187 25997 ft 468 kts 171°
2026-04-28 14:24 50.02765 17.60292 26337 ft 470 kts 171°
2026-04-28 14:24 49.99566 17.61421 26693 ft 472 kts 172°
2026-04-28 14:24 49.96360 17.62554 27048 ft 474 kts 172°
2026-04-28 14:25 49.93132 17.63692 27366 ft 476 kts 172°
2026-04-28 14:25 49.89893 17.64833 27666 ft 479 kts 172°
2026-04-28 14:25 49.86630 17.65980 27952 ft 482 kts 172°
2026-04-28 14:25 49.83351 17.67130 28270 ft 484 kts 172°
2026-04-28 14:26 49.80062 17.68283 28563 ft 486 kts 172°
2026-04-28 14:26 49.76757 17.69438 28846 ft 488 kts 172°
2026-04-28 14:26 49.73438 17.70597 29141 ft 490 kts 172°
2026-04-28 14:26 49.70105 17.71760 29459 ft 491 kts 172°
2026-04-28 14:27 49.66772 17.72922 29863 ft 490 kts 172°
2026-04-28 14:27 49.63449 17.74080 30318 ft 489 kts 173°
2026-04-28 14:27 49.60138 17.75232 30658 ft 487 kts 173°
2026-04-28 14:27 49.56827 17.76381 30940 ft 488 kts 173°
2026-04-28 14:28 49.53517 17.77527 31206 ft 488 kts 173°
2026-04-28 14:28 49.50204 17.78672 31509 ft 488 kts 173°
2026-04-28 14:28 49.46894 17.79815 31819 ft 487 kts 173°
2026-04-28 14:28 49.43585 17.80957 32126 ft 487 kts 173°
2026-04-28 14:29 49.40282 17.82095 32417 ft 487 kts 173°
2026-04-28 14:29 49.36977 17.83231 32719 ft 486 kts 174°
2026-04-28 14:29 49.33722 17.84350 33022 ft 485 kts 174°
2026-04-28 14:29 49.30429 17.85480 33307 ft 485 kts 174°
2026-04-28 14:30 49.27133 17.86608 33563 ft 485 kts 174°
2026-04-28 14:30 49.23836 17.87736 33836 ft 485 kts 174°
2026-04-28 14:30 49.20544 17.88860 34137 ft 485 kts 174°
2026-04-28 14:30 49.17258 17.89983 34396 ft 484 kts 174°
2026-04-28 14:31 49.13969 17.91103 34602 ft 484 kts 174°
2026-04-28 14:31 49.10682 17.92222 34768 ft 485 kts 174°
2026-04-28 14:31 49.07387 17.93341 34986 ft 485 kts 174°
2026-04-28 14:31 49.04094 17.94459 35227 ft 484 kts 174°
2026-04-28 14:32 49.00799 17.95330 35421 ft 477 kts 182°
2026-04-28 14:32 48.97497 17.95696 35609 ft 475 kts 184°
2026-04-28 14:32 48.94199 17.95953 35785 ft 475 kts 184°
2026-04-28 14:32 48.90893 17.96179 35941 ft 476 kts 184°
2026-04-28 14:33 48.87587 17.96413 36144 ft 475 kts 184°
2026-04-28 14:33 48.84286 17.96667 36367 ft 475 kts 184°
2026-04-28 14:33 48.80989 17.96940 36570 ft 475 kts 183°
2026-04-28 14:33 48.77686 17.97227 36730 ft 475 kts 183°
2026-04-28 14:34 48.71081 17.97818 37093 ft 475 kts 183°
2026-04-28 14:34 48.67778 17.98117 37142 ft 476 kts 183°
2026-04-28 14:35 48.61169 17.98711 37153 ft 476 kts 183°
2026-04-28 14:35 48.54561 17.99300 37152 ft 476 kts 183°
2026-04-28 14:36 48.47948 17.99886 37150 ft 476 kts 183°
2026-04-28 14:36 48.41329 18.00472 37145 ft 477 kts 183°
2026-04-28 14:37 48.34705 18.01057 37128 ft 477 kts 183°
2026-04-28 14:37 48.28079 18.01640 37129 ft 477 kts 183°
2026-04-28 14:38 48.21456 18.02222 37129 ft 477 kts 183°
2026-04-28 14:38 48.14876 18.02799 37132 ft 477 kts 183°
2026-04-28 14:39 48.08254 18.03378 37129 ft 476 kts 184°
2026-04-28 14:39 48.01637 18.03954 37126 ft 476 kts 184°
2026-04-28 14:40 47.95022 18.04529 37129 ft 476 kts 184°
2026-04-28 14:40 47.88410 18.05102 37131 ft 476 kts 184°
2026-04-28 14:41 47.81796 18.05674 37139 ft 476 kts 184°
2026-04-28 14:41 47.75232 18.07656 37154 ft 492 kts 164°
2026-04-28 14:41 47.72120 18.09867 37138 ft 500 kts 153°
2026-04-28 14:42 47.69232 18.12798 37162 ft 503 kts 148°
2026-04-28 14:42 47.63599 18.18996 37144 ft 505 kts 147°
2026-04-28 14:43 47.57959 18.25203 37134 ft 505 kts 148°
2026-04-28 14:43 47.52286 18.31317 37126 ft 505 kts 148°
2026-04-28 14:44 47.46581 18.37390 37130 ft 505 kts 148°
2026-04-28 14:44 47.40873 18.43443 37117 ft 506 kts 148°
2026-04-28 14:45 47.35161 18.49490 37124 ft 505 kts 148°
2026-04-28 14:45 47.29492 18.55478 37116 ft 505 kts 148°
2026-04-28 14:46 47.23748 18.61530 37118 ft 504 kts 148°
2026-04-28 14:46 47.18043 18.67525 37131 ft 504 kts 148°
2026-04-28 14:47 47.12372 18.73467 37118 ft 504 kts 148°
2026-04-28 14:47 47.06664 18.79433 37130 ft 504 kts 148°
2026-04-28 14:48 47.00949 18.85389 37123 ft 504 kts 149°
2026-04-28 14:48 46.95232 18.91332 37129 ft 504 kts 149°
2026-04-28 14:49 46.89511 18.97263 37128 ft 504 kts 149°
2026-04-28 14:49 46.83793 19.03175 37129 ft 504 kts 149°
2026-04-28 14:50 46.78062 19.09084 37115 ft 504 kts 149°
2026-04-28 14:50 46.72331 19.14979 37120 ft 504 kts 149°
2026-04-28 14:51 46.66600 19.20858 37125 ft 504 kts 149°
2026-04-28 14:51 46.60867 19.26723 37122 ft 504 kts 149°
2026-04-28 14:52 46.55130 19.32576 37122 ft 503 kts 149°
2026-04-28 14:52 46.49400 19.38408 37122 ft 503 kts 149°
2026-04-28 14:53 46.44630 19.43251 37118 ft 503 kts 149°
2026-04-28 14:53 46.38902 19.49053 37120 ft 502 kts 149°
2026-04-28 14:54 46.33175 19.54838 37121 ft 502 kts 149°
2026-04-28 14:54 46.27449 19.60608 37122 ft 501 kts 149°
2026-04-28 14:55 46.21726 19.66362 37117 ft 501 kts 149°
2026-04-28 14:55 46.16008 19.72120 37118 ft 501 kts 149°
2026-04-28 14:56 46.10330 19.77973 37120 ft 501 kts 148°
2026-04-28 14:56 46.04663 19.83841 37116 ft 502 kts 148°
2026-04-28 14:57 45.98992 19.89685 37116 ft 502 kts 148°
2026-04-28 14:57 45.93308 19.95511 37115 ft 502 kts 148°
2026-04-28 14:58 45.87654 20.01288 37113 ft 502 kts 148°
2026-04-28 14:58 45.81958 20.07092 37110 ft 503 kts 148°
2026-04-28 14:59 45.76252 20.12893 37109 ft 503 kts 148°
2026-04-28 14:59 45.70543 20.18683 37108 ft 503 kts 148°
2026-04-28 15:00 45.64828 20.24464 37108 ft 503 kts 148°
2026-04-28 15:00 45.59109 20.30234 37103 ft 503 kts 148°
2026-04-28 15:01 45.53389 20.35990 37101 ft 503 kts 148°
2026-04-28 15:01 45.47673 20.41728 37107 ft 502 kts 148°
2026-04-28 15:02 45.41956 20.47452 37102 ft 502 kts 148°
2026-04-28 15:02 45.36245 20.53155 37091 ft 501 kts 148°
2026-04-28 15:03 45.30538 20.58842 37095 ft 501 kts 148°
2026-04-28 15:03 45.24831 20.64512 37092 ft 500 kts 148°
2026-04-28 15:04 45.19135 20.70159 37090 ft 499 kts 148°
2026-04-28 15:04 45.13434 20.75796 37094 ft 499 kts 148°
2026-04-28 15:05 45.07737 20.81414 37094 ft 499 kts 148°
2026-04-28 15:05 45.02034 20.87026 37094 ft 499 kts 148°
2026-04-28 15:06 44.96335 20.92619 37094 ft 499 kts 148°
2026-04-28 15:06 44.90626 20.98209 37093 ft 499 kts 149°
2026-04-28 15:07 44.84918 21.03782 37089 ft 499 kts 149°
2026-04-28 15:07 44.79208 21.09345 37082 ft 499 kts 149°
2026-04-28 15:08 44.73493 21.14900 37086 ft 499 kts 149°
2026-04-28 15:08 44.67777 21.20442 37085 ft 499 kts 149°
2026-04-28 15:09 44.62056 21.25974 37077 ft 499 kts 149°
2026-04-28 15:09 44.56371 21.31459 37077 ft 499 kts 149°
2026-04-28 15:10 44.50646 21.36969 37075 ft 499 kts 149°
2026-04-28 15:10 44.44929 21.42459 37068 ft 498 kts 149°
2026-04-28 15:11 44.39222 21.47925 37062 ft 496 kts 149°
2026-04-28 15:11 44.33527 21.53366 37074 ft 496 kts 149°
2026-04-28 15:12 44.27833 21.58794 37069 ft 495 kts 149°
2026-04-28 15:12 44.22147 21.64201 37070 ft 494 kts 149°
2026-04-28 15:13 44.16462 21.69594 37059 ft 495 kts 149°
2026-04-28 15:13 44.10771 21.74979 37056 ft 494 kts 149°
2026-04-28 15:14 44.05092 21.80343 37051 ft 494 kts 149°
2026-04-28 15:14 43.99406 21.85698 37054 ft 494 kts 149°
2026-04-28 15:15 43.93712 21.91048 37044 ft 494 kts 149°
2026-04-28 15:15 43.88014 21.96391 37053 ft 495 kts 149°
2026-04-28 15:16 43.82296 22.01738 37039 ft 496 kts 149°
2026-04-28 15:16 43.76569 22.07083 37039 ft 497 kts 149°
2026-04-28 15:17 43.70831 22.12425 37034 ft 497 kts 149°
2026-04-28 15:17 43.65091 22.17756 37026 ft 497 kts 149°
2026-04-28 15:18 43.59351 22.23075 37037 ft 496 kts 149°
2026-04-28 15:18 43.53622 22.28371 37034 ft 495 kts 149°
2026-04-28 15:19 43.47902 22.33647 37033 ft 495 kts 149°
2026-04-28 15:19 43.42188 22.38905 37033 ft 494 kts 149°
2026-04-28 15:20 43.36479 22.44147 37047 ft 492 kts 149°
2026-04-28 15:20 43.30778 22.49368 37035 ft 492 kts 149°
2026-04-28 15:21 43.25080 22.54575 37033 ft 492 kts 149°
2026-04-28 15:21 43.19379 22.59774 37037 ft 492 kts 149°
2026-04-28 15:22 43.13676 22.64962 37042 ft 492 kts 149°
2026-04-28 15:22 43.08002 22.70112 37047 ft 493 kts 149°
2026-04-28 15:23 43.02279 22.75298 37038 ft 494 kts 149°
2026-04-28 15:23 42.96556 22.80499 37040 ft 495 kts 147°
2026-04-28 15:24 42.90991 22.86068 37033 ft 496 kts 144°
2026-04-28 15:24 42.85498 22.91783 37036 ft 497 kts 144°
2026-04-28 15:25 42.79994 22.97455 37032 ft 496 kts 145°
2026-04-28 15:25 42.74467 23.03082 37031 ft 495 kts 145°
2026-04-28 15:26 42.68943 23.08676 37046 ft 495 kts 145°
2026-04-28 15:26 42.63422 23.14257 37044 ft 495 kts 145°
2026-04-28 15:27 42.57905 23.19824 37042 ft 494 kts 145°
2026-04-28 15:27 42.52398 23.25369 37039 ft 493 kts 145°
2026-04-28 15:28 42.46898 23.30896 37030 ft 491 kts 145°
2026-04-28 15:28 42.41416 23.36392 37046 ft 489 kts 145°
2026-04-28 15:29 42.35954 23.41857 37042 ft 488 kts 145°
2026-04-28 15:29 42.30502 23.47299 37054 ft 486 kts 145°
2026-04-28 15:30 42.24915 23.52425 37054 ft 484 kts 150°
2026-04-28 15:30 42.19248 23.57223 37058 ft 484 kts 150°
2026-04-28 15:31 42.13532 23.62060 37049 ft 485 kts 150°
2026-04-28 15:31 42.07832 23.66935 37041 ft 485 kts 149°
2026-04-28 15:32 42.02140 23.71819 37054 ft 485 kts 149°
2026-04-28 15:32 41.96440 23.76703 37053 ft 486 kts 149°
2026-04-28 15:33 41.90724 23.81585 37050 ft 487 kts 149°
2026-04-28 15:33 41.85001 23.86462 37050 ft 488 kts 149°
2026-04-28 15:34 41.79271 23.91335 37052 ft 488 kts 149°
2026-04-28 15:34 41.73579 23.96164 37053 ft 488 kts 149°
2026-04-28 15:35 41.67846 24.01019 37056 ft 488 kts 149°
2026-04-28 15:35 41.59246 24.08284 37053 ft 487 kts 149°
2026-04-28 15:36 41.53516 24.13122 37055 ft 488 kts 149°
2026-04-28 15:36 41.47865 24.18135 37057 ft 488 kts 147°
2026-04-28 15:37 41.42248 24.23200 37067 ft 487 kts 147°
2026-04-28 15:37 41.37571 24.27384 37056 ft 488 kts 148°
2026-04-28 15:38 41.30978 24.33239 37067 ft 487 kts 148°
2026-04-28 15:38 41.25338 24.38236 37060 ft 488 kts 148°
2026-04-28 15:39 41.19681 24.43219 37068 ft 487 kts 149°
2026-04-28 15:39 41.13687 24.47351 37076 ft 485 kts 157°
2026-04-28 15:40 41.07567 24.51128 37069 ft 485 kts 157°
2026-04-28 15:40 41.01507 24.54954 37080 ft 486 kts 156°
2026-04-28 15:41 40.95422 24.58860 37070 ft 486 kts 156°
2026-04-28 15:41 40.89327 24.62752 37075 ft 486 kts 156°
2026-04-28 15:42 40.84211 24.65960 37076 ft 486 kts 156°
2026-04-28 15:42 40.78143 24.69756 37076 ft 486 kts 156°
2026-04-28 15:43 40.72063 24.73656 37073 ft 486 kts 155°
2026-04-28 15:43 40.66004 24.77585 37080 ft 485 kts 156°
2026-04-28 15:44 40.59915 24.81400 37081 ft 485 kts 156°
2026-04-28 15:44 40.53834 24.85223 37091 ft 484 kts 156°
2026-04-28 15:45 40.47756 24.89039 37087 ft 484 kts 156°
2026-04-28 15:45 40.41684 24.92843 37088 ft 483 kts 156°
2026-04-28 15:46 40.35619 24.96636 37086 ft 483 kts 156°
2026-04-28 15:46 40.29552 25.00423 37090 ft 482 kts 156°
2026-04-28 15:47 40.23492 25.04198 37088 ft 482 kts 156°
2026-04-28 15:47 40.20469 25.06078 36674 ft 479 kts 155°
2026-04-28 15:47 40.17510 25.07918 36811 ft 463 kts 155°
2026-04-28 15:48 40.11788 25.11469 36931 ft 452 kts 155°
2026-04-28 15:48 40.06138 25.14968 36997 ft 453 kts 155°
2026-04-28 15:49 40.02315 25.17333 37004 ft 455 kts 155°
2026-04-28 15:49 39.96805 25.20736 37010 ft 458 kts 155°
2026-04-28 15:50 39.91000 25.24210 37000 ft 460 kts 160°
2026-04-28 15:50 39.84899 25.26807 37003 ft 462 kts 163°
2026-04-28 15:51 39.78726 25.29219 37002 ft 464 kts 163°
2026-04-28 15:51 39.72552 25.31675 37000 ft 464 kts 163°
2026-04-28 15:52 39.66389 25.34175 37000 ft 464 kts 163°
2026-04-28 15:52 39.60242 25.36683 37000 ft 463 kts 163°
2026-04-28 15:53 39.54107 25.39182 37000 ft 462 kts 163°
2026-04-28 15:53 39.47987 25.41668 37000 ft 460 kts 163°
2026-04-28 15:54 39.41883 25.44142 37000 ft 459 kts 163°
2026-04-28 15:54 39.35792 25.46606 37001 ft 458 kts 163°
2026-04-28 15:55 39.29716 25.49060 37001 ft 457 kts 163°
2026-04-28 15:55 39.23647 25.51506 37001 ft 457 kts 163°
2026-04-28 15:56 39.17588 25.53944 37002 ft 456 kts 163°
2026-04-28 15:56 39.11566 25.56362 37002 ft 456 kts 163°
2026-04-28 15:57 39.05500 25.58794 37002 ft 457 kts 163°
2026-04-28 15:57 38.99429 25.61224 37002 ft 457 kts 163°
2026-04-28 15:58 38.93351 25.63651 37002 ft 458 kts 163°
2026-04-28 15:58 38.87262 25.66080 37002 ft 458 kts 163°
2026-04-28 15:59 38.81165 25.68507 37002 ft 459 kts 163°
2026-04-28 15:59 38.75058 25.70933 37002 ft 460 kts 163°
2026-04-28 16:00 38.68946 25.73358 37002 ft 460 kts 163°
2026-04-28 16:00 38.62827 25.75781 37001 ft 460 kts 163°
2026-04-28 16:01 38.56707 25.78199 37001 ft 461 kts 163°
2026-04-28 16:01 38.50583 25.80614 37001 ft 460 kts 163°
2026-04-28 16:02 38.44463 25.83025 37001 ft 460 kts 163°
2026-04-28 16:02 38.38341 25.85433 37001 ft 460 kts 163°
2026-04-28 16:03 38.32226 25.87837 37001 ft 460 kts 163°
2026-04-28 16:03 38.26117 25.90239 37002 ft 459 kts 163°
2026-04-28 16:04 38.20054 25.92816 37002 ft 459 kts 160°
2026-04-28 16:04 38.14057 25.95608 37000 ft 459 kts 160°
2026-04-28 16:05 38.08057 25.98382 37002 ft 459 kts 160°
2026-04-28 16:05 38.02048 26.01115 37001 ft 458 kts 160°
2026-04-28 16:06 37.96040 26.03830 37002 ft 458 kts 161°
2026-04-28 16:06 37.90032 26.06541 37002 ft 458 kts 161°
2026-04-28 16:07 37.84066 26.09230 37002 ft 458 kts 161°
2026-04-28 16:08 37.75056 26.13284 37002 ft 458 kts 161°
2026-04-28 16:08 37.69046 26.15991 37002 ft 458 kts 160°
2026-04-28 16:09 37.60031 26.20056 37002 ft 459 kts 160°
2026-04-28 16:10 37.51009 26.24113 37000 ft 459 kts 161°
2026-04-28 16:10 37.41979 26.28163 37001 ft 459 kts 161°
2026-04-28 16:11 37.29934 26.33548 37002 ft 459 kts 161°
2026-04-28 16:12 37.20896 26.37578 37002 ft 460 kts 161°
2026-04-28 16:13 37.11892 26.41565 37001 ft 459 kts 161°
2026-04-28 16:14 36.99836 26.46885 37002 ft 459 kts 161°
2026-04-28 16:15 36.87778 26.52191 37002 ft 459 kts 161°
2026-04-28 16:15 36.81750 26.54840 37001 ft 459 kts 161°
2026-04-28 16:16 36.72710 26.58805 37001 ft 459 kts 161°
2026-04-28 16:17 36.63672 26.62761 37001 ft 459 kts 161°
2026-04-28 16:17 36.57648 26.65392 37001 ft 459 kts 161°
2026-04-28 16:18 36.51620 26.68020 37001 ft 459 kts 161°
2026-04-28 16:18 36.45597 26.70642 37001 ft 459 kts 161°
2026-04-28 16:19 36.39571 26.73262 37001 ft 459 kts 161°
2026-04-28 16:19 36.33543 26.75876 37001 ft 459 kts 161°
2026-04-28 16:20 36.27511 26.78476 37001 ft 459 kts 161°
2026-04-28 16:20 36.21476 26.81072 37001 ft 459 kts 161°
2026-04-28 16:21 36.15442 26.83665 37002 ft 459 kts 161°
2026-04-28 16:21 36.09409 26.86255 37002 ft 459 kts 161°
2026-04-28 16:22 36.03373 26.88842 37002 ft 459 kts 161°
2026-04-28 16:22 35.97374 26.91409 37002 ft 459 kts 161°
2026-04-28 16:23 35.91299 26.94004 37002 ft 459 kts 161°
2026-04-28 16:23 35.85300 26.96564 37002 ft 459 kts 161°
2026-04-28 16:24 35.79260 26.99130 37002 ft 459 kts 161°
2026-04-28 16:24 35.73214 27.01678 37002 ft 459 kts 161°
2026-04-28 16:25 35.67167 27.04222 37002 ft 459 kts 161°
2026-04-28 16:25 35.61122 27.06764 37002 ft 459 kts 161°
2026-04-28 16:26 35.55072 27.09306 37004 ft 459 kts 161°
2026-04-28 16:26 35.49023 27.11843 37003 ft 459 kts 161°
2026-04-28 16:27 35.42963 27.14344 36996 ft 459 kts 164°
2026-04-28 16:27 35.36673 27.15567 37008 ft 458 kts 175°
2026-04-28 16:28 35.33496 27.15925 36997 ft 458 kts 175°
2026-04-28 16:28 35.27148 27.16663 37002 ft 458 kts 174°
2026-04-28 16:29 35.17631 27.17886 37002 ft 458 kts 174°
2026-04-28 16:30 35.08119 27.19113 37002 ft 458 kts 174°
2026-04-28 16:30 35.01771 27.19919 37002 ft 458 kts 174°
2026-04-28 16:31 34.96501 27.20587 37002 ft 458 kts 174°
2026-04-28 16:31 34.90154 27.21392 37002 ft 458 kts 174°
2026-04-28 16:32 34.83808 27.22196 37002 ft 459 kts 174°
2026-04-28 16:32 34.74290 27.23400 37002 ft 459 kts 174°
2026-04-28 16:33 34.69012 27.24067 37002 ft 459 kts 174°
2026-04-28 16:33 34.61593 27.25002 37002 ft 459 kts 174°
2026-04-28 16:34 34.55245 27.25801 37002 ft 459 kts 174°
2026-04-28 16:34 34.48895 27.26599 37002 ft 459 kts 174°
2026-04-28 16:35 34.42545 27.27396 37002 ft 459 kts 174°
2026-04-28 16:35 34.36196 27.28191 37002 ft 459 kts 174°
2026-04-28 16:36 34.29846 27.28986 37002 ft 459 kts 174°
2026-04-28 16:36 34.23496 27.29779 37002 ft 459 kts 174°
2026-04-28 16:37 34.17148 27.30571 37002 ft 459 kts 174°
2026-04-28 16:38 34.07625 27.31757 37002 ft 459 kts 174°
2026-04-28 16:38 34.01320 27.32540 37002 ft 459 kts 174°
2026-04-28 16:39 33.95090 27.34088 37006 ft 458 kts 159°
2026-04-28 16:39 33.89485 27.37706 37015 ft 458 kts 146°
2026-04-28 16:40 33.84210 27.42033 37003 ft 459 kts 146°
2026-04-28 16:40 33.78933 27.46363 37000 ft 459 kts 146°
2026-04-28 16:41 33.73631 27.50654 37002 ft 459 kts 146°
2026-04-28 16:41 33.68318 27.54919 37001 ft 460 kts 147°
2026-04-28 16:42 33.62993 27.59179 37001 ft 460 kts 147°
2026-04-28 16:42 33.57666 27.63436 37002 ft 460 kts 147°
2026-04-28 16:43 33.52338 27.67689 37002 ft 460 kts 147°
2026-04-28 16:43 33.47006 27.71939 37002 ft 460 kts 147°
2026-04-28 16:44 33.41710 27.76154 37002 ft 460 kts 147°
2026-04-28 16:44 33.36374 27.80394 37002 ft 460 kts 147°
2026-04-28 16:45 33.31040 27.84627 37002 ft 460 kts 147°
2026-04-28 16:45 33.25702 27.88856 37002 ft 460 kts 147°
2026-04-28 16:46 33.20364 27.93079 37002 ft 460 kts 147°
2026-04-28 16:46 33.15030 27.97293 37002 ft 460 kts 147°
2026-04-28 16:47 33.09692 28.01503 37002 ft 460 kts 147°
2026-04-28 16:47 33.04355 28.05707 37001 ft 460 kts 147°
2026-04-28 16:48 32.99016 28.09906 37001 ft 460 kts 147°
2026-04-28 16:48 32.93678 28.14098 37001 ft 460 kts 147°
2026-04-28 16:49 32.88337 28.18286 37001 ft 460 kts 147°
2026-04-28 16:49 32.82999 28.22466 37001 ft 459 kts 147°
2026-04-28 16:50 32.77660 28.26640 37001 ft 459 kts 147°
2026-04-28 16:50 32.72317 28.30811 37001 ft 459 kts 147°
2026-04-28 16:51 32.67162 28.34830 37001 ft 459 kts 147°
2026-04-28 16:51 32.61816 28.38992 37001 ft 459 kts 147°
2026-04-28 16:52 32.56506 28.43119 37001 ft 460 kts 147°
2026-04-28 16:52 32.51156 28.47273 37002 ft 460 kts 147°
2026-04-28 16:53 32.45807 28.51419 37002 ft 460 kts 147°
2026-04-28 16:53 32.40453 28.55563 37002 ft 460 kts 147°
2026-04-28 16:54 32.35099 28.59701 37002 ft 460 kts 147°
2026-04-28 16:54 32.30612 28.63164 37002 ft 460 kts 147°
2026-04-28 16:55 32.25867 28.66822 37002 ft 460 kts 147°
2026-04-28 16:55 32.20505 28.70951 37001 ft 460 kts 147°
2026-04-28 16:56 32.15146 28.75071 37001 ft 459 kts 147°
2026-04-28 16:56 32.09792 28.79181 37001 ft 459 kts 147°
2026-04-28 16:57 32.04439 28.83285 37001 ft 459 kts 147°
2026-04-28 16:57 31.99087 28.87383 37001 ft 459 kts 147°
2026-04-28 16:58 31.93737 28.91473 37001 ft 459 kts 147°
2026-04-28 16:58 31.88385 28.95559 37002 ft 459 kts 147°
2026-04-28 16:59 31.83032 28.99641 37002 ft 459 kts 147°
2026-04-28 16:59 31.77674 29.03721 37002 ft 459 kts 147°
2026-04-28 16:59 31.74884 29.05532 36991 ft 458 kts 158°
2026-04-28 17:00 31.71910 29.06722 37008 ft 457 kts 166°
2026-04-28 17:00 31.65606 29.07464 37016 ft 457 kts 180°
2026-04-28 17:01 31.59244 29.07455 37003 ft 457 kts 180°
2026-04-28 17:01 31.52868 29.07472 37000 ft 458 kts 180°
2026-04-28 17:02 31.46490 29.07542 37002 ft 459 kts 179°
2026-04-28 17:02 31.40106 29.07630 37001 ft 459 kts 179°
2026-04-28 17:03 31.30521 29.07759 37001 ft 459 kts 179°
2026-04-28 17:03 31.24126 29.07843 37001 ft 459 kts 179°
2026-04-28 17:04 31.14558 29.07973 37000 ft 457 kts 179°
2026-04-28 17:05 31.05021 29.08112 37001 ft 457 kts 179°
2026-04-28 17:06 30.95540 29.08249 37002 ft 456 kts 179°
2026-04-28 17:06 30.86020 29.08385 37002 ft 456 kts 179°
2026-04-28 17:07 30.79667 29.08476 37002 ft 457 kts 179°
2026-04-28 17:07 30.73309 29.08567 37002 ft 457 kts 179°
2026-04-28 17:08 30.66943 29.08657 37002 ft 458 kts 179°
2026-04-28 17:08 30.60571 29.08748 37002 ft 458 kts 179°
2026-04-28 17:09 30.54192 29.08839 37002 ft 459 kts 179°
2026-04-28 17:09 30.47806 29.08928 37002 ft 459 kts 179°
2026-04-28 17:10 30.41419 29.09006 37001 ft 459 kts 180°
2026-04-28 17:10 30.35023 29.09082 37001 ft 459 kts 180°
2026-04-28 17:11 30.28629 29.09158 37001 ft 460 kts 179°
2026-04-28 17:11 30.22234 29.09235 37001 ft 459 kts 179°
2026-04-28 17:12 30.15843 29.09313 37001 ft 459 kts 179°
2026-04-28 17:12 30.09453 29.09390 37001 ft 459 kts 179°
2026-04-28 17:13 30.03109 29.09466 37001 ft 459 kts 179°
2026-04-28 17:13 29.96726 29.09543 37001 ft 459 kts 179°
2026-04-28 17:14 29.90347 29.09620 37001 ft 458 kts 179°
2026-04-28 17:14 29.83969 29.09696 37001 ft 458 kts 179°
2026-04-28 17:15 29.77596 29.09773 37001 ft 458 kts 180°
2026-04-28 17:15 29.71221 29.09849 37001 ft 458 kts 179°
2026-04-28 17:16 29.64848 29.09925 37001 ft 458 kts 180°
2026-04-28 17:16 29.58506 29.10448 37001 ft 458 kts 168°
2026-04-28 17:17 29.52515 29.12874 37013 ft 458 kts 156°
2026-04-28 17:17 29.46700 29.15875 37002 ft 458 kts 156°
2026-04-28 17:18 29.40870 29.18845 37000 ft 459 kts 156°
2026-04-28 17:18 29.35019 29.21770 37002 ft 459 kts 157°
2026-04-28 17:19 29.29158 29.24682 37002 ft 459 kts 157°
2026-04-28 17:19 29.23297 29.27593 37002 ft 460 kts 157°
2026-04-28 17:20 29.18420 29.30014 37002 ft 460 kts 157°
2026-04-28 17:20 29.11663 29.33563 36994 ft 460 kts 149°
2026-04-28 17:21 29.06439 29.37783 37000 ft 460 kts 143°
2026-04-28 17:22 28.98733 29.44330 37000 ft 460 kts 144°
2026-04-28 17:22 28.94438 29.47929 37001 ft 460 kts 144°
2026-04-28 17:23 28.86669 29.54378 37001 ft 460 kts 144°
2026-04-28 17:23 28.81486 29.58666 37001 ft 460 kts 144°
2026-04-28 17:24 28.76300 29.62952 37001 ft 460 kts 144°
2026-04-28 17:24 28.71116 29.67233 37001 ft 460 kts 144°
2026-04-28 17:25 28.63338 29.73646 37001 ft 460 kts 144°
2026-04-28 17:26 28.58155 29.77913 37001 ft 460 kts 144°
2026-04-28 17:26 28.52969 29.82177 37001 ft 460 kts 144°
2026-04-28 17:27 28.47784 29.86435 37001 ft 460 kts 144°
2026-04-28 17:27 28.42598 29.90688 37002 ft 460 kts 144°
2026-04-28 17:28 28.37410 29.94938 37002 ft 460 kts 144°
2026-04-28 17:28 28.29631 30.01300 37002 ft 460 kts 144°
2026-04-28 17:29 28.24441 30.05539 37002 ft 460 kts 144°
2026-04-28 17:30 28.16656 30.11887 37002 ft 460 kts 144°
2026-04-28 17:30 28.08862 30.18230 37002 ft 460 kts 144°
2026-04-28 17:31 28.01105 30.24532 37002 ft 460 kts 144°
2026-04-28 17:32 27.93306 30.30857 37002 ft 460 kts 144°
2026-04-28 17:32 27.88103 30.35070 37002 ft 460 kts 144°
2026-04-28 17:33 27.82899 30.39279 37002 ft 460 kts 144°
2026-04-28 17:33 27.78653 30.42709 37002 ft 460 kts 144°
2026-04-28 17:34 27.72913 30.47341 37001 ft 460 kts 144°
2026-04-28 17:34 27.67705 30.51538 37001 ft 460 kts 144°
2026-04-28 17:35 27.62498 30.55729 37001 ft 460 kts 144°
2026-04-28 17:35 27.57287 30.59919 37001 ft 460 kts 144°
2026-04-28 17:36 27.52078 30.64102 37001 ft 460 kts 145°
2026-04-28 17:36 27.46865 30.68284 37002 ft 460 kts 145°
2026-04-28 17:37 27.41652 30.72460 37001 ft 460 kts 145°
2026-04-28 17:37 27.36440 30.76631 37001 ft 460 kts 145°
2026-04-28 17:38 27.31260 30.80771 37001 ft 460 kts 145°
2026-04-28 17:38 27.26046 30.84934 37001 ft 460 kts 145°
2026-04-28 17:39 27.21318 30.88705 37002 ft 460 kts 145°
2026-04-28 17:40 27.13653 30.94819 37100 ft 457 kts 146°
2026-04-28 17:40 27.08654 30.99289 37021 ft 462 kts 148°
2026-04-28 17:41 27.03708 31.02847 36999 ft 462 kts 142°
2026-04-28 17:41 27.01355 31.05326 36996 ft 460 kts 131°
2026-04-28 17:41 26.99320 31.08085 37005 ft 459 kts 129°
2026-04-28 17:42 26.95371 31.13686 36998 ft 457 kts 128°
2026-04-28 17:42 26.91421 31.19256 36997 ft 456 kts 129°
2026-04-28 17:43 26.87443 31.24772 37002 ft 455 kts 129°
2026-04-28 17:43 26.83441 31.30273 37003 ft 456 kts 129°
2026-04-28 17:44 26.79427 31.35776 37003 ft 457 kts 129°
2026-04-28 17:44 26.75401 31.41292 37003 ft 458 kts 129°
2026-04-28 17:45 26.71357 31.46826 37003 ft 460 kts 129°
2026-04-28 17:45 26.67300 31.52373 37002 ft 461 kts 129°
2026-04-28 17:46 26.63255 31.57897 37002 ft 463 kts 129°
2026-04-28 17:46 26.59176 31.63461 37001 ft 463 kts 129°
2026-04-28 17:47 26.55088 31.69029 37001 ft 464 kts 129°
2026-04-28 17:47 26.50997 31.74595 37001 ft 463 kts 129°
2026-04-28 17:48 26.46908 31.80150 37001 ft 463 kts 130°
2026-04-28 17:48 26.42819 31.85699 37001 ft 462 kts 130°
2026-04-28 17:49 26.38737 31.91232 37000 ft 462 kts 130°
2026-04-28 17:49 26.34660 31.96752 37003 ft 461 kts 130°
2026-04-28 17:50 26.30583 32.02264 37000 ft 460 kts 130°
2026-04-28 17:50 26.26511 32.07763 37002 ft 460 kts 130°
2026-04-28 17:51 26.22442 32.13252 37001 ft 459 kts 130°
2026-04-28 17:51 26.18375 32.18731 37003 ft 459 kts 130°
2026-04-28 17:52 26.14301 32.24212 37004 ft 460 kts 130°
2026-04-28 17:52 26.08159 32.32464 37002 ft 462 kts 130°
2026-04-28 17:53 26.04064 32.37958 36994 ft 460 kts 130°
2026-04-28 17:53 25.99983 32.43426 36998 ft 459 kts 130°
2026-04-28 17:54 25.95914 32.48873 37001 ft 457 kts 130°
2026-04-28 17:54 25.91837 32.54323 37012 ft 460 kts 130°
2026-04-28 17:55 25.87725 32.59812 37005 ft 464 kts 130°
2026-04-28 17:55 25.83640 32.65261 36989 ft 460 kts 130°
2026-04-28 17:56 25.79561 32.70697 36995 ft 457 kts 130°
2026-04-28 17:56 25.75503 32.76097 36998 ft 454 kts 130°
2026-04-28 17:57 25.71825 32.81779 37006 ft 453 kts 123°
2026-04-28 17:57 25.68402 32.87663 37003 ft 454 kts 123°
2026-04-28 17:58 25.64959 32.93549 37006 ft 456 kts 123°
2026-04-28 17:58 25.61464 32.99432 37003 ft 458 kts 124°
2026-04-28 17:59 25.59687 33.02405 36487 ft 466 kts 124°
2026-04-28 17:59 25.57900 33.05389 35916 ft 464 kts 124°
2026-04-28 17:59 25.56116 33.08366 35214 ft 465 kts 124°
2026-04-28 17:59 25.55512 33.09373 34975 ft 465 kts 124°
2026-04-28 18:00 25.55083 33.10090 34796 ft 465 kts 124°
2026-04-28 18:00 25.53244 33.13157 34067 ft 466 kts 124°
2026-04-28 18:00 25.51460 33.16131 33330 ft 467 kts 124°
2026-04-28 18:01 25.49655 33.19141 32564 ft 468 kts 124°
2026-04-28 18:01 25.47852 33.22144 31782 ft 469 kts 124°
2026-04-28 18:01 25.46048 33.25147 30976 ft 469 kts 124°
2026-04-28 18:01 25.44238 33.28158 30278 ft 468 kts 124°
2026-04-28 18:02 25.42449 33.31133 29729 ft 462 kts 124°
2026-04-28 18:02 25.40678 33.34076 29159 ft 457 kts 124°
2026-04-28 18:02 25.38926 33.36985 28589 ft 452 kts 124°
2026-04-28 18:02 25.37196 33.39858 28034 ft 447 kts 124°
2026-04-28 18:03 25.35479 33.42705 27484 ft 442 kts 124°
2026-04-28 18:03 25.33792 33.45527 26922 ft 438 kts 121°
2026-04-28 18:03 25.32628 33.48604 26388 ft 433 kts 103°
2026-04-28 18:03 25.32314 33.51888 25855 ft 429 kts 88°
2026-04-28 18:04 25.32806 33.55075 25349 ft 425 kts 75°
2026-04-28 18:04 25.33622 33.58191 24810 ft 421 kts 73°
2026-04-28 18:04 25.34457 33.61279 24265 ft 417 kts 73°
2026-04-28 18:04 25.35277 33.64340 23748 ft 414 kts 74°
2026-04-28 18:05 25.36076 33.67381 23220 ft 410 kts 74°
2026-04-28 18:05 25.36602 33.69423 22868 ft 408 kts 74°
2026-04-28 18:05 25.37615 33.73398 22184 ft 403 kts 75°
2026-04-28 18:05 25.38252 33.75918 21743 ft 401 kts 75°
2026-04-28 18:06 25.38476 33.76806 21587 ft 400 kts 75°
2026-04-28 18:06 25.39220 33.79756 21070 ft 396 kts 75°
2026-04-28 18:06 25.39956 33.82680 20574 ft 393 kts 75°
2026-04-28 18:07 25.40687 33.85582 20053 ft 390 kts 75°
2026-04-28 18:07 25.41412 33.88463 19545 ft 387 kts 75°
2026-04-28 18:07 25.42132 33.91326 19036 ft 385 kts 75°
2026-04-28 18:07 25.42842 33.94162 18585 ft 381 kts 75°
2026-04-28 18:08 25.43543 33.96976 18077 ft 378 kts 75°
2026-04-28 18:08 25.44238 33.99770 17574 ft 376 kts 75°
2026-04-28 18:08 25.44930 34.02551 17073 ft 373 kts 75°
2026-04-28 18:08 25.45616 34.05312 16574 ft 371 kts 75°
2026-04-28 18:09 25.46297 34.08055 16079 ft 369 kts 75°
2026-04-28 18:09 25.46926 34.10794 15578 ft 366 kts 82°
2026-04-28 18:09 25.46881 34.13578 15115 ft 362 kts 102°
2026-04-28 18:09 25.46163 34.16234 14650 ft 358 kts 109°
2026-04-28 18:10 25.45338 34.18830 14153 ft 357 kts 110°
2026-04-28 18:10 25.44799 34.20541 13815 ft 355 kts 109°
2026-04-28 18:10 25.44617 34.21127 13711 ft 355 kts 109°
2026-04-28 18:10 25.43811 34.23764 13227 ft 353 kts 109°
2026-04-28 18:11 25.43038 34.26332 12766 ft 351 kts 109°
2026-04-28 18:11 25.42271 34.28890 12390 ft 350 kts 109°
2026-04-28 18:11 25.41511 34.31429 12004 ft 345 kts 109°
2026-04-28 18:11 25.40763 34.33927 11611 ft 338 kts 109°
2026-04-28 18:12 25.40143 34.35999 11254 ft 328 kts 109°
2026-04-28 18:12 25.39700 34.37476 10988 ft 323 kts 109°
2026-04-28 18:12 25.39120 34.39408 10633 ft 316 kts 109°
2026-04-28 18:12 25.38719 34.40742 10380 ft 311 kts 109°
2026-04-28 18:13 25.38535 34.41356 10259 ft 309 kts 109°
2026-04-28 18:13 25.37885 34.43518 9837 ft 304 kts 109°
2026-04-28 18:13 25.37224 34.45716 9395 ft 300 kts 109°
2026-04-28 18:14 25.36571 34.47887 9088 ft 291 kts 109°
2026-04-28 18:14 25.35951 34.49952 8978 ft 276 kts 109°
2026-04-28 18:14 25.35354 34.51934 8793 ft 270 kts 109°
2026-04-28 18:14 25.34769 34.53874 8524 ft 270 kts 109°
2026-04-28 18:15 25.34171 34.55853 8234 ft 273 kts 109°
2026-04-28 18:15 25.33573 34.57851 7932 ft 275 kts 107°
2026-04-28 18:15 25.33389 34.58536 7798 ft 276 kts 106°
2026-04-28 18:16 25.33319 34.58816 7743 ft 277 kts 105°
2026-04-28 18:16 25.33012 34.60090 7512 ft 276 kts 105°
2026-04-28 18:16 25.32539 34.62120 7208 ft 270 kts 105°
2026-04-28 18:16 25.32071 34.64115 6903 ft 267 kts 105°
2026-04-28 18:17 25.31627 34.66102 6603 ft 267 kts 99°
2026-04-28 18:17 25.31811 34.68102 6297 ft 257 kts 68°
2026-04-28 18:17 25.32777 34.69646 6171 ft 237 kts 40°
2026-04-28 18:17 25.34194 34.70521 5614 ft 238 kts 14°
2026-04-28 18:18 25.35833 34.70680 4997 ft 240 kts 353°
2026-04-28 18:18 25.37422 34.70148 4386 ft 239 kts 333°
2026-04-28 18:18 25.38878 34.69265 3765 ft 239 kts 329°
2026-04-28 18:18 25.39820 34.68643 3377 ft 237 kts 328°
2026-04-28 18:19 25.41623 34.67442 3085 ft 214 kts 328°
2026-04-28 18:19 25.42852 34.66638 2892 ft 198 kts 329°
2026-04-28 18:19 25.44012 34.65889 2633 ft 188 kts 329°
2026-04-28 18:19 25.45100 34.65188 2395 ft 173 kts 329°
2026-04-28 18:20 25.46103 34.64544 2160 ft 159 kts 329°
2026-04-28 18:20 25.47039 34.63942 1975 ft 153 kts 329°
2026-04-28 18:20 25.47950 34.63357 1823 ft 148 kts 329°
2026-04-28 18:20 25.48825 34.62795 1601 ft 145 kts 329°
2026-04-28 18:21 25.49697 34.62234 1408 ft 145 kts 329°
2026-04-28 18:21 25.50575 34.61670 1203 ft 146 kts 329°
2026-04-28 18:21 25.51450 34.61108 1004 ft 145 kts 329°
2026-04-28 18:21 25.52309 34.60556 817 ft 144 kts 329°
2026-04-28 18:22 25.53178 34.60001 623 ft 145 kts 330°
2026-04-28 18:22 25.54052 34.59448 400 ft 143 kts 329°
2026-04-28 18:22 25.54908 34.58899 264 ft 137 kts 329°
2026-04-28 18:22 25.55645 34.58423 260 ft 106 kts 330°
2026-04-28 18:23 25.56180 34.58081 259 ft 72 kts 330°
2026-04-28 18:23 25.56504 34.57878 259 ft 29 kts 329°
2026-04-28 18:23 25.56664 34.57774 261 ft 21 kts 330°
2026-04-28 18:23 25.56789 34.57695 265 ft 20 kts 336°
2026-04-28 18:24 25.56868 34.57690 265 ft 1 kts 317°
2026-04-28 18:24 25.56868 34.57684 265 ft 4 kts 279°
2026-04-28 18:24 25.56844 34.57648 264 ft 5 kts 175°
2026-04-28 18:24 25.56777 34.57686 264 ft 17 kts 139°
2026-04-28 18:25 25.56657 34.57775 261 ft 22 kts 150°
2026-04-28 18:25 25.56524 34.57861 259 ft 22 kts 149°
2026-04-28 18:25 25.56394 34.57948 257 ft 22 kts 149°
2026-04-28 18:26 25.56144 34.58106 259 ft 20 kts 150°
2026-04-28 18:26 25.56018 34.58187 244 ft 22 kts 150°
2026-04-28 18:26 25.55880 34.58275 262 ft 24 kts 150°
2026-04-28 18:26 25.55721 34.58375 238 ft 28 kts 150°
2026-04-28 18:27 25.55567 34.58473 258 ft 23 kts 149°
2026-04-28 18:27 25.55475 34.58554 255 ft 1 kts 110°
2026-04-28 18:27 25.55476 34.58556 255 ft 1 kts 86°
2026-04-28 18:27 25.55500 34.58601 256 ft 14 kts 56°
2026-04-28 18:28 25.55559 34.58712 253 ft 18 kts 60°
2026-04-28 18:28 25.55630 34.58851 241 ft 19 kts 71°
2026-04-28 18:28 25.55611 34.58903 241 ft 4 kts 149°
2026-04-28 18:28 25.55563 34.58935 241 ft 16 kts 149°
2026-04-28 18:29 25.55446 34.59011 241 ft 21 kts 150°
2026-04-28 18:29 25.55358 34.59073 241 ft 6 kts 133°
2026-04-28 18:29 25.55356 34.59087 241 ft 4 kts 78°
2026-04-28 18:29 25.55369 34.59119 241 ft 4 kts 61°
2026-04-28 18:30 25.55381 34.59141 241 ft 0 kts 59°